Regional Weather Roundup
Issued by NWS

Home | Current Version | Previous Version | Text Only | Print | Product List | Glossary On
Versions: 1 2 3 4 5 6 7 8 9 10 11 12 13 14 15 16 17 18 19 20 21 22 23 24 25 26 27 28 29 30 31 32 33 34 35 36 37 38 39 40 41 42 43 44 45 46 47 48 49 50
000
ASUS42 KTBW 171619
RWRFL
FLORIDA REGIONAL WEATHER ROUNDUP
NATIONAL WEATHER SERVICE TAMPA BAY RUSKIN FL
1200 PM EDT THU AUG 17 2017

NOTE: "FAIR" INDICATES FEW OR NO CLOUDS BELOW 12,000 FEET WITH NO
SIGNIFICANT WEATHER AND/OR OBSTRUCTIONS TO VISIBILITY.

FLZ001>010-012>015-112-114-115-171700-
PANHANDLE FLORIDA

CITY           SKY/WX    TMP DP  RH WIND       PRES   REMARKS
PENSACOLA      PTSUNNY   92  76  59 W8        30.10S HX 104
PENSACOLA NAS  PTSUNNY   88  76  67 NW5       30.10S HX  99
MILTON NAS     MOSUNNY   89  77  67 NW8       30.11  HX 101
CRESTVIEW      MOSUNNY   90  74  59 NW3       30.12S HX  99
DUKE FIELD     MOSUNNY   89  74  60 NW6       30.10F HX  98
VALPARAISO     MOSUNNY   91  72  53 CALM      30.10S HX  97
PANAMA CITY    PTSUNNY   89  75  63 W6        30.09F HX  99
TYNDALL AFB    MOSUNNY   88  77  69 W7        30.10F HX  99
APALACHICOLA   CLOUDY    85  76  74 NW9       30.11R

STATION/POSITION SKY/WX   TEMP    WIND        PRES    WAVE   SWELL
                          AIR SEA DIR/SP/G            HT/PER HT/PER
                          (F)     (DEG/KT/KT) (MB)    (FT/S) (FT/S)
30.1N   87.6W              84 87  360/  4/  4 1019.4R   1/ 5
29.2N   88.2W              86 87  250/  4/  6 1019.9
28.8N   86.0W              85 87  310/  6/  8 1019.7R   1/ 6   2/ 6
PANAMA CITY BEAC           85     260/  5/  5 1019.8F
TOWER C                    85                 1020.0F
28.5N   84.5W              85 87  320/  6/  8 1019.4S   1

$$
FLZ011-016>038-118-127-128-134-139-239-171700-
NORTH FLORIDA

CITY           SKY/WX    TMP DP  RH WIND       PRES   REMARKS
MARIANNA       MOSUNNY   90  75  61 VRB5      30.10S HX 100
TALLAHASSEE    MOSUNNY   90  76  63 NW9       30.10S HX 101
PERRY          MOSUNNY  N/A N/A N/A W6        30.10S
LIVE OAK       MOSUNNY   91  77  62 VRB6      30.09F HX 105
CROSS CITY     CLOUDY    89  74  62 W8        30.15S HX  98
LAKE CITY      PTSUNNY   88  77  70 CALM      30.09F HX 100
GAINESVILLE    SUNNY     90  76  63 W10       30.11F HX 101
WILLISTON      SUNNY     91  81  70 W6        30.09S HX 110
PALATKA        FAIR      91  77  62 NW5       30.08F HX 105
MAYPORT NAS    MOSUNNY   92  77  61 VRB3      30.07F HX 105
JACKSONVILLE   PTSUNNY   89  76  65 W7        30.07S HX 100
JAX NAS        PTSUNNY   90  78  68 E5        30.08F HX 104
JAX CECIL      PTSUNNY   93  77  59 W7        30.07  HX 107
FERNANDINA BEA CLOUDY    88  77  70 E6        30.06S HX 100
ST AUGUSTINE   MOSUNNY   92  77  61 VRB3      30.08F HX 105
PALM COAST     MOSUNNY   90  77  66 VRB3      30.08S HX 102

STATION/POSITION SKY/WX   TEMP    WIND        PRES    WAVE   SWELL
                          AIR SEA DIR/SP/G            HT/PER HT/PER
                          (F)     (DEG/KT/KT) (MB)    (FT/S) (FT/S)
SHELL POINT      NOT AVBL
KEATON BEACH               86     290/  8/ 10 1018.9F
CEDAR KEY                  87     310/  6/  7 1019.6F
FERNANDINA                 90 87  310/  2/  4 1019.1F
30.7N   81.3W                 84                N/A     1/ 9
MAYPORT                       86  270/  3/  4 1018.9F
31.4N   80.9W              85 85  300/  4/  4 1017.9F   1/ 7   2/ 7
ST AUGUSTINE               90 81  300/  2/  4 1018.9F

$$
FLZ040-043>046-052-053-057-058-063-144-171700-
INTERIOR CENTRAL FLORIDA

CITY           SKY/WX    TMP DP  RH WIND       PRES   REMARKS
OCALA          PTSUNNY   89  77  67 CALM      30.10F HX 101
THE VILLAGES     N/A     88  81  79 MISG      29.99F HX 105
LEESBURG       SUNNY     89  78  70 VRB5      30.10F HX 103
SANFORD        MOSUNNY   90  72  55 MISG      30.09S HX  97
ORLANDO EXEC   MOSUNNY   89  75  63 SW3       30.09S HX  99
ORLANDO INTL   MOSUNNY   88  75  65 CALM      30.09S HX  97
KISSIMMEE      PTSUNNY   89  76  65 CALM      30.10F HX 100
WINTER HAVEN   PTSUNNY   89  73  59 VRB3      30.11F HX  97
LAKELAND       PTSUNNY   88  73  62 CALM      30.11S HX  96
BARTOW         PTSUNNY   88  73  62 VRB3      30.10F HX  96
SEBRING        FAIR      92  72  51 CALM      30.09F HX 100
OKEECHOBEE     SUNNY     90  73  58 CALM      30.08S HX  98

$$
FLZ041-047-054-059-064-141-147-171700-
EAST CENTRAL FLORIDA

CITY           SKY/WX    TMP DP  RH WIND       PRES   REMARKS
ORMOND BEACH   MOSUNNY   90  77  66 W7        30.08F HX 102
DAYTONA BEACH  MOSUNNY   90  77  65 W3        30.09S HX 103
DELAND         PTSUNNY   88  75  66 SW5       30.09S HX  97
NEW SMYRNA BEA MOSUNNY   90  77  66 W6        30.10S HX 102
JFK SPACE CTR  SUNNY     89  78  70 SW5       30.08S HX 102
TITUSVILLE     MOSUNNY   91  77  62 VRB7      30.09F HX 105
CAPE CANAVERAL SUNNY     89  76  65 W6        30.08S HX 100
PATRICK AFB    SUNNY     88  77  70 E6        30.08F HX 100
MELBOURNE      MOSUNNY   90  74  59 CALM      30.08F HX  99
VERO BEACH     MOSUNNY   91  74  57 CALM      30.09S HX 100
FT PIERCE      MOSUNNY   92  75  57 VRB5      30.08F HX 103
STUART         MOSUNNY   90  77  66 SE6       30.10S HX 102

STATION/POSITION SKY/WX   TEMP    WIND        PRES    WAVE   SWELL
                          AIR SEA DIR/SP/G            HT/PER HT/PER
                          (F)     (DEG/KT/KT) (MB)    (FT/S) (FT/S)
28.5N   80.2W              83 86  240/  4/  6 1020.5R   1/ 7   2/ 7
28.9N   78.5W              85 86  260/  4/  6 1019.2R   2/ 8   2/ 8
TRIDENT PIER               88 83  170/  4/  5 1020.7S
28.4N   80.5W                 85                N/A     1
27.5N   80.2W                 83                N/A     1/ 8

$$
FLZ050-056-061-142-242-148-248-149-249-151-251-155-255-
160-260-171700-
WEST CENTRAL FLORIDA

CITY           SKY/WX    TMP DP  RH WIND       PRES   REMARKS
CRYSTAL RIVER  CLOUDY    86  79  79 CALM      30.09F HX  99
INVERNESS      FAIR      90  77  66 CALM      30.09F HX 102
BROOKSVILLE    LGT RAIN  81  75  83 NW9       30.11S
CLEARWATER AIR PTSUNNY   86  73  66 NW3       30.09S
ST PETE CLEARW MOSUNNY   91  75  59 NE7       30.09F THUNDER HX 101
TAMPA INTL     MOSUNNY   90  76  63 S8        30.09F HX 101
TAMPA EXEC     PTSUNNY   91  77  62 CALM      30.10S HX 105
PLANT CITY     MOSUNNY   91  75  59 CALM      30.12S HX 102
MACDILL AFB    SUNNY     91  81  71 CALM      30.09F HX 110
PETER O KNIGHT PTSUNNY   91  79  66 SW5       30.10S HX 107
ST PETERSBURG  MOSUNNY   89  76  65 SE6       30.08S HX 100
SARASOTA       PTSUNNY   92  73  53 VRB5      30.07F HX 100
VENICE         FAIR      90  75  62 W8        30.09F HX 100

STATION/POSITION SKY/WX   TEMP    WIND        PRES    WAVE   SWELL
                          AIR SEA DIR/SP/G            HT/PER HT/PER
                          (F)     (DEG/KT/KT) (MB)    (FT/S) (FT/S)
CLEARWATER BEACH           86 89  300/  5/  6 1019.5S
MIDDLE TAMPA BAY           86      20/  2/  3 1019.4F
VENICE                     87 90  270/  4/  6 1018.9F

$$
FLZ066-069-070-075>078-162-262-165-265-171700-
SOUTHWEST FLORIDA AND KEYS

CITY           SKY/WX    TMP DP  RH WIND       PRES   REMARKS
PUNTA GORDA    MOSUNNY   92  73  53 CALM      30.09F HX 100
FT MYERS       MOSUNNY   91  75  59 N3        30.08S HX 101
SOUTHWEST INTL SUNNY     89  74  60 E5        30.08F HX  98
NAPLES         MOSUNNY   91  74  57 N5        30.08S HX 100
MARCO ISLAND   SUNNY     91  72  52 SE6       30.09S HX  98
IMMOKALEE      FAIR      90  73  58 CALM      30.09F HX  98
MARATHON       CLOUDY    91  78  65 E9        30.08F HX 106
KEY WEST NAS   CLOUDY    88  78  72 E8        30.08S HX 101
KEY WEST INTL  MOSUNNY   89  76  65 E9        30.08S HX 100

STATION/POSITION SKY/WX   TEMP    WIND        PRES    WAVE   SWELL
                          AIR SEA DIR/SP/G            HT/PER HT/PER
                          (F)     (DEG/KT/KT) (MB)    (FT/S) (FT/S)
NAPLES                        90  300/  5/  7 1018.7F
DRY TORTUGAS               87      70/  8/  9 1019.1R
SAND KEY                   86     110/ 10/ 12 1019.4R
MOLASSES REEF              85 87  150/  7/  8 1019.2F

$$
FLZ067-068-071>074-168-172>174-171700-
SOUTHEAST FLORIDA

CITY           SKY/WX    TMP DP  RH WIND       PRES   REMARKS
W PALM BEACH   MOSUNNY   94  75  54 E7        30.09S HX 105
BOCA RATON     MOSUNNY   90  77  66 SE12      30.09S HX 102
FT LAUDER-EXEC SUNNY     90  75  61 E6        30.09R HX 100
FT LAUDERDALE  MOSUNNY   90  75  61 E10       30.09R HX 100
POMPANO BEACH  SUNNY     91  76  61 E9        30.09S HX 103
PEMBROKE PINES PTSUNNY   92  74  55 E8        30.10S HX 101
OPA LOCKA      MOSUNNY   90  75  61 E8        30.09S HX 100
MIAMI          MOSUNNY   92  74  55 SE10      30.09S HX 101
WEST KENDALL   SUNNY     92  74  55 SE13      30.08F HX 101
HOMESTEAD      MOSUNNY   90  78  68 E10       30.08S HX 104

STATION/POSITION SKY/WX   TEMP    WIND        PRES    WAVE   SWELL
                          AIR SEA DIR/SP/G            HT/PER HT/PER
                          (F)     (DEG/KT/KT) (MB)    (FT/S) (FT/S)
PORT EVERGLADES            88      70/  6/  9 1019.1R
VIRGINIA KEY               87 90   60/  4/  7 1018.7F
LAKE WORTH                         90/  4/  5   N/A
FOWEY ROCKS                86 88  110/  7/  8 1019.6F
SETTLEMENT POINT           87      80/  5/  7 1019.5S

$$




USA.gov is the U.S. government's official web portal to all federal, state and local government web resources and services.